Location: Oberwangen
(47.4286°N, 8.9679°E)
Time: 22:14:13
(UTC+00:00)

FALCON 9 DEB - Pass Details

Date: 20 June 2021
Orbit: 364 x 380 km, 53.0° (Epoch: 23 July)

Event Time Altitude Azimuth Distance (km) Brightness Sun altitude
Rises 21:52:13 0° 258° (WSW) 2,262 6.9 -16.1°
Reaches altitude 10° 21:54:19 10° 264° (W) 1,412 5.9 -16.2°
Maximum altitude 21:57:23 47° 340° (NNW) 525 4.0 -16.4°
Drops below altitude 10° 22:00:28 10° 56° (NE) 1,420 5.9 -16.6°
Sets 22:02:35 0° 63° (ENE) 2,276 6.9 -16.7°
